Volver al catálogo

STARLINK-38041

ActivoComunicacionesSSO
NORAD 69742·PAYLOAD·🇺🇸 United States

Lanzado Jul 2, 2026 desde Vandenberg Space Force Base

Loading…

Próximos Pases (próximas 24 horas)

TLE

ActualizadoSource: CelesTrak SupGP

Época: Sep 15, 2026, 04:21 UTC

1 69742C 26150D   26258.18173611 -.00039236  00000+0 -12186-2 0  2585
2 69742  97.2843  97.2099 0001790  89.5515 230.9310 15.33442420    16

Sigue STARLINK-38041 en tiempo real con AllMySat

Download on the App Store